Location: Caixon
(43.4106°N, 0.0273°E)
Time: 14:44:33
(UTC+00:00)

Okean 2 - Pass Details

Date: 16 October 2021
Orbit: 560 x 575 km, 82.5° (Epoch: 29 November)

Event Time Altitude Azimuth Distance (km) Brightness Sun altitude
Rises 05:22:20 0° 207° (SSW) 2,735 6.6 -10.3°
Reaches altitude 10° 05:24:38 10° 216° (SW) 1,844 5.7 -9.9°
Maximum altitude 05:28:23 35° 284° (WNW) 910 3.9 -9.2°
Drops below altitude 10° 05:32:10 10° 351° (N) 1,860 5.9 -8.6°
Sets 05:34:30 0° 0° (N) 2,763 6.9 -8.1°
